User: anonymous   Login
Location: Unspecified
(0.0000°N, 0.0000°E)
Time: 00:18:40
(UTC+00:00)
Language:

Megsat 1 - Orbit

View from above orbital plane
View from above orbital plane
View from above satellite
View from above satellite

Ground track
Ground track

The orbit data is extracted from the following two-line orbital elements,

1 26545U 00057A   17231.16717827  .00000034  00000-0  21818-4 0  9998
2 26545  64.5532 251.6936 0035170 215.2604 144.6177 14.84774542913691
Epoch (UTC): 19 August 2017 04:00:44
Eccentricity: 0.0035170
inclination: 64.5532°
perigee height: 590 km
apogee height: 639 km
right ascension of ascending node: 251.6936°
argument of perigee: 215.2604°
revolutions per day: 14.84774542
mean anomaly at epoch: 144.6177°
orbit number at epoch: 91369

The dashed part of the orbit path shows where the satellite is in the earth's shadow,  

DLR